Regional Weather Roundup
Issued by NWS Upton, NY

Current Version | Previous Version | Text Only | Print | Product List | Glossary Off
Versions: 1 2 3 4 5 6 7 8 9 10 11 12 13 14 15 16 17 18 19 20 21 22 23 24 25 26 27 28 29 30 31 32 33 34 35 36 37 38 39 40 41 42 43 44 45 46 47 48 49 50
000 ASUS41 KOKX 160508 RWROKX REGIONAL WEATHER ROUNDUP NATIONAL WEATHER SERVICE NEW YORK NY 1200 AM EST SAT DEC 16 2017 NOTE: "FAIR" INDICATES FEW OR NO CLOUDS BELOW 12,000 FEET WITH NO SIGNIFICANT WEATHER AND/OR OBSTRUCTIONS TO VISIBILITY. NYZ071-072-176-178-NJZ106-104-160600- NEW YORK CITY METRO AREA CITY SKY/WX TMP DP RH WIND PRES REMARKS Central Park CLEAR 23 18 81 W6G18 29.91F WCI 16 Bronx Bot Gard N/A 25 19 80 SW6 29.92R WCI 18 Bronx Lehman C N/A 25 19 80 W9 N/A WCI 15 LaGuardia APRT PTCLDY 25 18 74 W15 29.90F WCI 13 Queens College N/A 27 19 74 W12 N/A WCI 16 Kennedy INTL PTCLDY 25 20 81 W13 29.93S WCI 14 Breezy Point N/A N/A N/A N/A W13G22 N/A Brooklyn Coll N/A 25 19 80 W8 N/A WCI 16 Staten Island N/A 23 19 86 W6 N/A WCI 16 Newark/Liberty PTCLDY 21 18 88 SW8 29.92F WCI 11 Teterboro CLEAR 22 17 81 W9 29.90F WCI 12 $$ NYZ177-179-078>081-160600- LONG ISLAND NEW YORK CITY SKY/WX TMP DP RH WIND PRES REMARKS Jones Beach N/A N/A N/A N/A W14G20 N/A Wantagh N/A 25 19 80 W7 N/A WCI 17 Matinecock PT N/A N/A N/A N/A W21G28 N/A Farmingdale CLEAR 22 17 81 W6 29.90F WCI 14 MacArthur/ISP CLEAR 21 18 88 W7 29.89S WCI 12 Shirley CLEAR 23 20 88 W9 29.89S WCI 13 Mt Sinai Harb N/A N/A N/A N/A W10G17 N/A Westhampton PTCLDY 23 19 85 W10 29.88F WCI 12 East Hampton MOCLDY 27 23 84 W13G18 29.85S WCI 17 Southold N/A 28 23 80 NW12 N/A WCI 18 Montauk N/A 32 27 81 W15G24 29.83F WCI 22 $$ NYZ052-065-067-160600- HUDSON VALLEY CITY SKY/WX TMP DP RH WIND PRES REMARKS White Plains MOCLDY 21 17 84 W6 29.86F WCI 13 Larchmont Harb N/A N/A N/A N/A SW13 N/A Croton On Huds N/A N/A N/A N/A S6 N/A Somers N/A 18 16 93 W2 N/A Brewster N/A 19 18 93 W2 N/A Newburgh NOT AVBL Montgomery CLEAR 14 12 92 SW6 29.86S WCI 5 Otisville N/A 18 16 93 SW2 N/A Warwick N/A 19 18 93 W6 N/A WCI 11 Suffern N/A 19 16 86 SW2 N/A Poughkeepsie MOCLDY 21 15 78 SW5 29.88S WCI 15 Albany FLURRIES 20 15 81 S3 29.84F $$ NJZ001-105-106-008-010-013-015-019>022-104-160600- NEW JERSEY CITY SKY/WX TMP DP RH WIND PRES REMARKS Newark/Liberty PTCLDY 21 18 88 SW8 29.92F WCI 11 Teterboro CLEAR 22 17 81 W9 29.90F WCI 12 Caldwell CLEAR 18 17 96 SW3 29.91S Somerville CLEAR 13 11 92 CALM 29.92S Linden FAIR 21 18 86 W8 29.93S WCI 12 Perth Amboy N/A N/A N/A N/A W10 N/A Sussex CLEAR 16 13 88 SW5 29.87S WCI 9 Andover NOT AVBL Trenton CLEAR 21 18 88 W6 29.94S FOG WCI 13 Millville CLEAR 11 10 96 CALM 29.99S Atlantic City CLEAR 22 20 92 W6 29.98R FOG WCI 14 Wrightstown CLEAR 17 15 91 SW8 29.92S WCI 7 Toms River CLEAR 13 11 92 W6 29.96S WCI 4 Belmar CLEAR 18 16 92 SW8 29.94S WCI 8 $$ PAZ047>061-062-071-160600- EASTERN PENNSYLVANIA CITY SKY/WX TMP DP RH WIND PRES REMARKS Philadelphia PTCLDY 25 20 81 W10 29.98S WCI 15 Allentown CLEAR 18 14 84 W6 29.93R FOG WCI 10 Scranton CLEAR 18 15 88 CALM 29.86S FOG $$ CTZ002-004>006-009-010-012-RIZ004-006-007-MAZ004-011-015-160600- SOUTHERN NEW ENGLAND IN CT CITY SKY/WX TMP DP RH WIND PRES REMARKS Bradley INTL CLOUDY 22 18 85 SW6 29.84F WCI 14 Hartford CLOUDY 23 19 85 CALM 29.86F Danbury PTCLDY 18 15 88 SW5 29.87S WCI 11 Wtrbury/Oxford PTCLDY 18 16 92 W6 29.83S WCI 10 Norwalk Harbor N/A N/A N/A N/A SW13 N/A Bridgeport MOCLDY 23 18 81 W8 29.88F WCI 14 Meriden CLOUDY 22 17 81 W6 29.86S WCI 14 New Haven CLOUDY 25 19 78 W8 29.87S WCI 16 Chester FAIR 21 18 86 VRB5 29.82F WCI 15 Groton PTCLDY 23 19 85 NW7 29.84F WCI 15 Wilimantic CLOUDY 20 17 88 CALM 29.83F IN RI CITY SKY/WX TMP DP RH WIND PRES REMARKS Providence CLOUDY 23 22 96 CALM 29.82F Block Island MIX PCPN 28 26 92 NW13G21 29.82F WCI 17 Westerly MOCLDY 23 20 88 W3 29.84F IN MA CITY SKY/WX TMP DP RH WIND PRES REMARKS Boston CLOUDY 25 17 72 NW13 29.80F WCI 14 Worcester MOCLDY 18 14 84 W13 29.74F WCI 5 Westfield CLOUDY 20 19 96 CALM 29.83S Provincetown LGT SNOW 27 25 92 W12 29.80F FOG WCI 17 Nantucket LGT SNOW 33 33 100 N8 29.76F FOG WCI 26 $$ ANZ330-335-338-340-345-350-353-355-160600- COASTAL MARINE OBSERVATIONS STATION/POSITION TIME SKY/WX TEMP WIND PRES VSBY WAVE AIR SEA DIR/SP/G HT/PER (UTC) (F) (DEG/KT/KT) (MB) (MI) (FT/S) NY HARB ENTRANCE 0350 29 50 280/ 19/ 23 1012.8 3/ 4 20 S FIRE ISLAND 0350 33 51 290/ 23/ 29 1012.1 4/ 4 GREAT SOUTH BAY NOT AVBL HUDSON CANYON 0350 38 56 300/ 25/ 31 1011.2 5/ 4 KINGS POINT 0424 26 42 320/ 12/ 16 1013.5 EXECUTION ROCKS 0430 27 230/ 12/ 17 N/A WESTERN LI SOUND NOT AVBL CENTRAL LI SOUND 0415 30 270/ 19/ 25 N/A 2 ROBBINS REEF 0442 24 270/ 13/ 17 1013.7 $$ >>>>>>>>>>>>>>>>>>>>>>>>>>>> KEY <<<<<<<<<<<<<<<<<<<<<<<<<<< > < > SKY/WX - Sky Condition/Present Weather < > TMP - Temperature in Fahrenheit < > DP - Dew Point in Fahrenheit < > RH - Relative Humidity in Percent < > WIND - Direction (from) and Speed in MPH < > PRES - Mean Sea Level Pressure (inches of Hg) < > WCI - Wind Chill Index < > VSB - VISIBILITY IN MILES < > HX - HEAT INDEX < > TC - TEMPERATURE IN CELSIUS < > VRB - VARIABLE WIND DIRECTION < > < >>>>>>>>>>>>>>>>>>>>>>>>>>>> KEY <<<<<<<<<<<<<<<<<<<<<<<<<<<

USA.gov is the U.S. government's official web portal to all federal, state and local government web resources and services.